GEFSGL_prec_meanprecacc_006.txt.gz
Total_Precipitation_Accumulation
0.03 0.01 0.00 0.00 0.00 0.00 0.00 0.00 0.00 0.00 0.00 0.00 0.00 0.00 0.00 0.00 0.00 0.00 0.00 0.00 0.01 0.01 0.02 0.02 0.03 0.03 0.04 0.04 0.04 0.03 0.02 0.02 0.02 0.01 0.00 0.00 0.00 0.01 0.01 0.02 0.03 0.04 0.05
0.01 0.00 0.00 0.00 0.00 0.00 0.00 0.00 0.00 0.00 0.00 0.00 0.00 0.00 0.00 0.00 0.00 0.00 0.01 0.01 0.02 0.03 0.03 0.04 0.04 0.04 0.05 0.04 0.04 0.03 0.03 0.03 0.03 0.02 0.01 0.00 0.01 0.01 0.03 0.04 0.03 0.03 0.04
0.01 0.00 0.00 0.00 0.00 0.00 0.00 0.00 0.00 0.00 0.00 0.00 0.00 0.00 0.00 0.00 0.00 0.01 0.01 0.01 0.02 0.02 0.02 0.02 0.02 0.02 0.03 0.03 0.03 0.03 0.03 0.02 0.03 0.03 0.03 0.02 0.02 0.03 0.05 0.06 0.06 0.06 0.03
0.00 0.00 0.00 0.00 0.00 0.00 0.00 0.00 0.00 0.00 0.00 0.01 0.01 0.01 0.00 0.00 0.00 0.00 0.00 0.00 0.00 0.01 0.01 0.01 0.01 0.02 0.03 0.03 0.03 0.03 0.03 0.03 0.03 0.05 0.05 0.04 0.04 0.04 0.07 0.06 0.05 0.05 0.05
0.00 0.00 0.00 0.00 0.00 0.00 0.00 0.00 0.00 0.01 0.01 0.01 0.00 0.00 0.00 0.00 0.00 0.00 0.00 0.00 0.00 0.00 0.00 0.00 0.01 0.01 0.02 0.02 0.02 0.02 0.03 0.04 0.05 0.05 0.05 0.05 0.03 0.04 0.05 0.05 0.04 0.03 0.02
0.01 0.01 0.01 0.00 0.00 0.00 0.00 0.00 0.01 0.01 0.00 0.00 0.00 0.00 0.00 0.00 0.00 0.00 0.00 0.00 0.00 0.00 0.01 0.01 0.01 0.01 0.01 0.01 0.02 0.03 0.04 0.05 0.05 0.06 0.05 0.04 0.02 0.03 0.04 0.04 0.04 0.05 0.06
0.03 0.02 0.02 0.01 0.01 0.00 0.00 0.00 0.00 0.00 0.00 0.00 0.00 0.00 0.01 0.00 0.00 0.00 0.00 0.00 0.00 0.01 0.01 0.02 0.01 0.01 0.01 0.01 0.02 0.02 0.02 0.03 0.04 0.05 0.05 0.02 0.02 0.03 0.05 0.04 0.06 0.09 0.08
0.06 0.05 0.04 0.02 0.01 0.00 0.00 0.00 0.00 0.00 0.00 0.00 0.00 0.00 0.01 0.01 0.00 0.00 0.00 0.00 0.00 0.01 0.01 0.02 0.01 0.01 0.01 0.02 0.01 0.01 0.01 0.01 0.01 0.02 0.04 0.03 0.04 0.05 0.05 0.04 0.06 0.08 0.08
0.06 0.04 0.02 0.01 0.00 0.00 0.00 0.00 0.00 0.00 0.00 0.00 0.00 0.00 0.01 0.02 0.00 0.00 0.00 0.00 0.00 0.00 0.01 0.01 0.01 0.02 0.03 0.04 0.02 0.01 0.01 0.01 0.01 0.02 0.04 0.06 0.07 0.07 0.06 0.06 0.08 0.10 0.08
0.02 0.01 0.00 0.00 0.00 0.00 0.00 0.00 0.00 0.00 0.00 0.00 0.00 0.00 0.01 0.02 0.01 0.00 0.00 0.00 0.00 0.00 0.00 0.00 0.02 0.04 0.03 0.02 0.01 0.01 0.01 0.01 0.02 0.04 0.07 0.10 0.11 0.15 0.14 0.10 0.10 0.10 0.09
0.00 0.00 0.00 0.00 0.00 0.00 0.00 0.00 0.00 0.00 0.00 0.00 0.00 0.00 0.01 0.01 0.00 0.00 0.00 0.00 0.00 0.00 0.00 0.01 0.03 0.05 0.03 0.02 0.02 0.01 0.02 0.02 0.05 0.08 0.08 0.09 0.12 0.13 0.12 0.09 0.09 0.10 0.12
0.00 0.00 0.00 0.00 0.00 0.00 0.00 0.00 0.00 0.00 0.00 0.00 0.00 0.00 0.01 0.01 0.01 0.00 0.00 0.00 0.00 0.00 0.01 0.02 0.04 0.05 0.03 0.04 0.04 0.04 0.04 0.07 0.09 0.09 0.09 0.10 0.10 0.10 0.09 0.08 0.08 0.09 0.11
0.00 0.00 0.00 0.00 0.00 0.00 0.00 0.00 0.00 0.00 0.00 0.00 0.00 0.00 0.01 0.01 0.01 0.00 0.00 0.00 0.00 0.01 0.02 0.05 0.07 0.08 0.08 0.08 0.09 0.09 0.10 0.10 0.08 0.07 0.08 0.09 0.08 0.06 0.05 0.05 0.06 0.09 0.11
0.00 0.00 0.00 0.00 0.00 0.00 0.00 0.00 0.00 0.01 0.00 0.00 0.01 0.01 0.01 0.01 0.00 0.00 0.00 0.00 0.00 0.01 0.02 0.05 0.11 0.16 0.18 0.17 0.15 0.13 0.10 0.08 0.07 0.06 0.05 0.04 0.03 0.03 0.04 0.05 0.08 0.10 0.11
0.00 0.00 0.00 0.00 0.00 0.00 0.00 0.00 0.01 0.01 0.00 0.00 0.00 0.00 0.00 0.00 0.01 0.01 0.01 0.00 0.01 0.01 0.02 0.03 0.06 0.11 0.14 0.13 0.11 0.09 0.07 0.05 0.04 0.03 0.02 0.02 0.02 0.02 0.03 0.04 0.07 0.08 0.09
0.00 0.00 0.00 0.00 0.00 0.00 0.00 0.01 0.00 0.00 0.00 0.00 0.00 0.00 0.01 0.02 0.02 0.01 0.01 0.01 0.02 0.02 0.02 0.03 0.06 0.10 0.12 0.10 0.08 0.07 0.05 0.04 0.03 0.02 0.02 0.04 0.04 0.05 0.06 0.07 0.07 0.08 0.11
0.00 0.00 0.00 0.00 0.00 0.00 0.00 0.01 0.02 0.01 0.00 0.00 0.00 0.00 0.01 0.01 0.01 0.01 0.01 0.01 0.02 0.02 0.01 0.02 0.06 0.09 0.10 0.08 0.06 0.05 0.05 0.05 0.03 0.03 0.03 0.05 0.07 0.06 0.06 0.07 0.07 0.06 0.05
0.00 0.00 0.00 0.00 0.00 0.00 0.00 0.01 0.01 0.01 0.02 0.01 0.01 0.00 0.00 0.01 0.01 0.01 0.01 0.01 0.01 0.02 0.02 0.03 0.05 0.06 0.08 0.08 0.05 0.03 0.03 0.03 0.03 0.04 0.04 0.04 0.05 0.06 0.06 0.06 0.05 0.04 0.03
0.00 0.00 0.00 0.00 0.00 0.00 0.00 0.00 0.01 0.01 0.01 0.01 0.01 0.00 0.00 0.01 0.02 0.02 0.02 0.01 0.01 0.02 0.04 0.05 0.05 0.05 0.05 0.06 0.05 0.04 0.03 0.03 0.03 0.04 0.05 0.06 0.06 0.06 0.05 0.04 0.04 0.03 0.03
0.00 0.00 0.00 0.00 0.00 0.00 0.00 0.00 0.00 0.00 0.01 0.01 0.01 0.00 0.00 0.01 0.01 0.01 0.01 0.01 0.02 0.03 0.05 0.06 0.05 0.03 0.03 0.03 0.04 0.04 0.04 0.03 0.03 0.05 0.06 0.06 0.06 0.06 0.05 0.04 0.03 0.03 0.02
0.00 0.00 0.00 0.00 0.00 0.00 0.00 0.00 0.00 0.00 0.00 0.00 0.01 0.00 0.01 0.01 0.01 0.02 0.02 0.02 0.02 0.03 0.06 0.06 0.05 0.03 0.02 0.03 0.04 0.03 0.03 0.04 0.04 0.06 0.07 0.06 0.05 0.04 0.03 0.02 0.01 0.01 0.01
0.00 0.00 0.00 0.00 0.00 0.00 0.00 0.00 0.00 0.00 0.00 0.00 0.00 0.00 0.01 0.01 0.02 0.03 0.03 0.03 0.02 0.03 0.04 0.04 0.03 0.03 0.03 0.03 0.04 0.03 0.03 0.04 0.05 0.07 0.07 0.05 0.03 0.02 0.01 0.01 0.00 0.00 0.00
0.00 0.00 0.00 0.00 0.00 0.00 0.00 0.00 0.00 0.00 0.00 0.00 0.00 0.00 0.00 0.02 0.04 0.06 0.05 0.04 0.02 0.02 0.03 0.03 0.02 0.02 0.02 0.02 0.02 0.02 0.02 0.03 0.04 0.06 0.05 0.02 0.01 0.01 0.01 0.00 0.00 0.00 0.00
0.00 0.00 0.00 0.00 0.00 0.00 0.00 0.00 0.00 0.00 0.00 0.00 0.00 0.00 0.00 0.01 0.03 0.06 0.07 0.05 0.03 0.02 0.01 0.01 0.01 0.01 0.01 0.01 0.01 0.01 0.01 0.01 0.02 0.03 0.03 0.01 0.00 0.00 0.00 0.00 0.00 0.00 0.00
0.00 0.00 0.00 0.00 0.00 0.00 0.00 0.00 0.00 0.00 0.00 0.00 0.00 0.00 0.00 0.00 0.01 0.01 0.03 0.04 0.04 0.03 0.02 0.01 0.00 0.00 0.00 0.00 0.00 0.00 0.00 0.01 0.00 0.01 0.02 0.01 0.01 0.00 0.00 0.00 0.00 0.00 0.00
0.00 0.00 0.00 0.00 0.00 0.00 0.00 0.00 0.00 0.00 0.00 0.00 0.00 0.00 0.00 0.00 0.00 0.00 0.00 0.01 0.02 0.03 0.02 0.01 0.00 0.00 0.00 0.00 0.00 0.00 0.01 0.01 0.01 0.00 0.01 0.01 0.01 0.00 0.00 0.00 0.00 0.00 0.00

GEFSGL_prec_meanprecacc_012.txt.gz
Total_Precipitation_Accumulation
0.08 0.06 0.03 0.02 0.01 0.00 0.00 0.00 0.00 0.00 0.00 0.00 0.00 0.00 0.00 0.00 0.00 0.00 0.00 0.00 0.01 0.02 0.02 0.03 0.03 0.04 0.04 0.04 0.04 0.03 0.02 0.03 0.03 0.01 0.00 0.00 0.01 0.01 0.01 0.02 0.03 0.04 0.05
0.04 0.03 0.02 0.01 0.01 0.00 0.00 0.00 0.00 0.00 0.00 0.00 0.00 0.00 0.00 0.00 0.00 0.01 0.01 0.01 0.02 0.03 0.03 0.04 0.04 0.04 0.05 0.04 0.04 0.03 0.03 0.04 0.04 0.03 0.01 0.01 0.01 0.01 0.03 0.04 0.03 0.03 0.05
0.03 0.02 0.01 0.01 0.01 0.00 0.00 0.00 0.00 0.00 0.00 0.00 0.00 0.00 0.01 0.00 0.00 0.01 0.01 0.01 0.02 0.02 0.02 0.02 0.02 0.02 0.03 0.03 0.03 0.03 0.03 0.02 0.03 0.04 0.03 0.02 0.02 0.03 0.05 0.06 0.06 0.08 0.07
0.01 0.01 0.01 0.00 0.00 0.00 0.00 0.00 0.01 0.01 0.01 0.01 0.01 0.01 0.00 0.00 0.00 0.00 0.00 0.00 0.00 0.01 0.01 0.01 0.01 0.02 0.03 0.03 0.03 0.03 0.03 0.03 0.04 0.05 0.06 0.05 0.04 0.04 0.07 0.08 0.07 0.08 0.09
0.00 0.00 0.01 0.01 0.01 0.01 0.02 0.02 0.03 0.03 0.02 0.01 0.00 0.00 0.00 0.00 0.00 0.00 0.00 0.00 0.00 0.00 0.00 0.01 0.01 0.02 0.03 0.04 0.03 0.03 0.04 0.06 0.07 0.08 0.07 0.06 0.04 0.05 0.05 0.06 0.05 0.04 0.03
0.02 0.02 0.03 0.04 0.05 0.06 0.05 0.03 0.03 0.02 0.00 0.00 0.00 0.00 0.00 0.00 0.00 0.00 0.00 0.00 0.00 0.00 0.01 0.01 0.01 0.01 0.02 0.02 0.03 0.06 0.08 0.09 0.09 0.09 0.07 0.05 0.03 0.03 0.04 0.05 0.05 0.06 0.06
0.09 0.10 0.11 0.11 0.09 0.06 0.03 0.01 0.01 0.00 0.00 0.00 0.00 0.00 0.01 0.00 0.00 0.00 0.00 0.00 0.00 0.01 0.01 0.02 0.01 0.01 0.01 0.02 0.03 0.04 0.04 0.05 0.06 0.08 0.07 0.04 0.03 0.04 0.06 0.07 0.08 0.10 0.09
0.18 0.17 0.14 0.10 0.06 0.03 0.01 0.00 0.00 0.00 0.00 0.00 0.00 0.00 0.01 0.01 0.00 0.00 0.00 0.00 0.00 0.01 0.01 0.02 0.01 0.01 0.02 0.03 0.02 0.01 0.01 0.01 0.02 0.03 0.04 0.04 0.06 0.07 0.09 0.10 0.11 0.12 0.10
0.16 0.11 0.06 0.03 0.01 0.01 0.00 0.00 0.00 0.00 0.00 0.00 0.00 0.00 0.01 0.02 0.00 0.00 0.00 0.00 0.00 0.00 0.01 0.01 0.01 0.02 0.05 0.05 0.03 0.02 0.02 0.01 0.01 0.03 0.06 0.09 0.11 0.13 0.14 0.14 0.16 0.19 0.14
0.06 0.03 0.01 0.00 0.00 0.00 0.00 0.00 0.00 0.00 0.00 0.00 0.00 0.00 0.01 0.02 0.01 0.00 0.00 0.00 0.00 0.00 0.00 0.00 0.02 0.05 0.05 0.03 0.02 0.02 0.04 0.03 0.04 0.06 0.11 0.15 0.17 0.23 0.24 0.20 0.20 0.19 0.17
0.01 0.00 0.00 0.00 0.00 0.00 0.00 0.00 0.00 0.00 0.00 0.00 0.00 0.01 0.01 0.01 0.01 0.00 0.00 0.00 0.00 0.00 0.00 0.01 0.04 0.07 0.04 0.03 0.04 0.04 0.06 0.07 0.10 0.12 0.13 0.14 0.17 0.19 0.18 0.15 0.15 0.16 0.19
0.00 0.00 0.00 0.00 0.00 0.00 0.00 0.00 0.00 0.00 0.00 0.00 0.00 0.00 0.01 0.01 0.01 0.00 0.00 0.00 0.00 0.00 0.01 0.03 0.06 0.08 0.05 0.07 0.07 0.09 0.11 0.14 0.14 0.14 0.13 0.14 0.14 0.14 0.14 0.13 0.12 0.13 0.16
0.00 0.00 0.00 0.00 0.00 0.00 0.00 0.00 0.00 0.00 0.00 0.00 0.00 0.00 0.01 0.01 0.01 0.00 0.00 0.00 0.01 0.01 0.03 0.06 0.10 0.11 0.11 0.12 0.14 0.15 0.16 0.15 0.13 0.11 0.11 0.12 0.11 0.10 0.09 0.09 0.10 0.14 0.17
0.00 0.00 0.00 0.00 0.00 0.00 0.00 0.00 0.00 0.01 0.00 0.00 0.01 0.01 0.01 0.01 0.00 0.00 0.00 0.00 0.01 0.01 0.02 0.06 0.14 0.19 0.21 0.21 0.19 0.17 0.13 0.12 0.11 0.10 0.09 0.08 0.06 0.06 0.06 0.08 0.12 0.15 0.17
0.00 0.00 0.00 0.00 0.00 0.00 0.00 0.00 0.01 0.01 0.00 0.00 0.01 0.00 0.00 0.00 0.01 0.02 0.01 0.01 0.01 0.02 0.02 0.03 0.07 0.13 0.16 0.15 0.14 0.11 0.10 0.08 0.07 0.06 0.07 0.07 0.06 0.06 0.06 0.08 0.10 0.11 0.13
0.00 0.00 0.00 0.00 0.00 0.00 0.01 0.01 0.00 0.00 0.00 0.00 0.00 0.00 0.01 0.02 0.02 0.01 0.01 0.01 0.02 0.03 0.02 0.03 0.07 0.11 0.15 0.13 0.11 0.10 0.09 0.08 0.06 0.06 0.07 0.08 0.07 0.08 0.10 0.09 0.09 0.10 0.12
0.00 0.00 0.00 0.00 0.00 0.00 0.01 0.02 0.02 0.01 0.00 0.00 0.00 0.01 0.01 0.01 0.01 0.01 0.01 0.02 0.02 0.02 0.01 0.03 0.07 0.11 0.13 0.11 0.09 0.09 0.10 0.10 0.08 0.06 0.06 0.08 0.09 0.09 0.08 0.08 0.08 0.07 0.06
0.00 0.00 0.00 0.00 0.00 0.00 0.00 0.01 0.01 0.02 0.02 0.02 0.01 0.00 0.00 0.01 0.01 0.01 0.01 0.01 0.01 0.02 0.03 0.05 0.07 0.09 0.12 0.12 0.09 0.08 0.08 0.09 0.08 0.09 0.08 0.07 0.07 0.07 0.07 0.07 0.07 0.05 0.04
0.00 0.00 0.00 0.00 0.00 0.00 0.00 0.00 0.01 0.01 0.01 0.01 0.01 0.00 0.00 0.01 0.02 0.02 0.02 0.01 0.02 0.03 0.05 0.07 0.08 0.08 0.09 0.10 0.09 0.08 0.08 0.08 0.09 0.09 0.09 0.09 0.09 0.08 0.06 0.05 0.05 0.05 0.05
0.00 0.00 0.00 0.00 0.00 0.00 0.00 0.00 0.00 0.00 0.01 0.01 0.01 0.00 0.00 0.01 0.01 0.01 0.02 0.02 0.02 0.05 0.07 0.09 0.09 0.07 0.06 0.06 0.07 0.08 0.09 0.08 0.08 0.09 0.10 0.09 0.09 0.08 0.06 0.05 0.04 0.04 0.03
0.00 0.00 0.00 0.00 0.00 0.00 0.00 0.00 0.00 0.00 0.00 0.00 0.01 0.00 0.01 0.01 0.02 0.02 0.03 0.03 0.03 0.05 0.09 0.10 0.09 0.07 0.06 0.06 0.07 0.06 0.06 0.07 0.07 0.09 0.09 0.07 0.06 0.05 0.04 0.02 0.01 0.01 0.01
0.00 0.00 0.00 0.00 0.00 0.00 0.00 0.00 0.00 0.00 0.00 0.00 0.00 0.00 0.01 0.02 0.03 0.04 0.05 0.04 0.04 0.05 0.07 0.08 0.07 0.06 0.06 0.06 0.06 0.06 0.06 0.05 0.06 0.08 0.08 0.05 0.03 0.02 0.01 0.01 0.00 0.00 0.00
0.00 0.00 0.00 0.00 0.00 0.00 0.00 0.00 0.00 0.00 0.00 0.00 0.00 0.00 0.01 0.02 0.06 0.08 0.08 0.06 0.04 0.04 0.05 0.05 0.04 0.04 0.03 0.03 0.04 0.04 0.03 0.03 0.05 0.06 0.06 0.03 0.01 0.01 0.01 0.00 0.00 0.00 0.00
0.00 0.00 0.00 0.00 0.00 0.00 0.00 0.00 0.00 0.00 0.00 0.00 0.00 0.00 0.00 0.01 0.04 0.07 0.09 0.08 0.05 0.03 0.02 0.02 0.02 0.02 0.02 0.02 0.02 0.01 0.01 0.01 0.02 0.03 0.03 0.01 0.00 0.00 0.00 0.00 0.00 0.00 0.00
0.00 0.00 0.00 0.00 0.00 0.00 0.00 0.00 0.00 0.00 0.00 0.00 0.00 0.00 0.00 0.00 0.01 0.02 0.04 0.05 0.06 0.04 0.02 0.01 0.01 0.01 0.01 0.01 0.01 0.00 0.00 0.01 0.00 0.01 0.02 0.01 0.01 0.00 0.00 0.00 0.00 0.00 0.00
0.00 0.00 0.00 0.00 0.00 0.00 0.00 0.00 0.00 0.00 0.00 0.00 0.00 0.00 0.00 0.00 0.00 0.00 0.01 0.02 0.03 0.03 0.02 0.01 0.01 0.00 0.00 0.00 0.00 0.01 0.01 0.01 0.01 0.00 0.01 0.01 0.01 0.00 0.00 0.00 0.00 0.00 0.00

GEFSGL_prec_meanprecacc_018.txt.gz
Total_Precipitation_Accumulation
0.23 0.17 0.11 0.07 0.04 0.02 0.01 0.00 0.00 0.00 0.00 0.00 0.00 0.00 0.00 0.00 0.00 0.00 0.00 0.00 0.01 0.02 0.02 0.03 0.03 0.04 0.04 0.04 0.04 0.03 0.02 0.03 0.03 0.01 0.00 0.00 0.01 0.01 0.01 0.02 0.03 0.04 0.05
0.11 0.08 0.05 0.03 0.02 0.01 0.01 0.00 0.00 0.00 0.00 0.00 0.00 0.00 0.00 0.00 0.00 0.01 0.01 0.01 0.02 0.03 0.03 0.04 0.04 0.04 0.05 0.04 0.04 0.03 0.03 0.04 0.04 0.03 0.02 0.01 0.01 0.01 0.03 0.04 0.03 0.03 0.05
0.05 0.04 0.02 0.01 0.01 0.01 0.00 0.00 0.00 0.00 0.00 0.00 0.00 0.01 0.01 0.00 0.00 0.01 0.01 0.01 0.02 0.02 0.02 0.02 0.02 0.02 0.03 0.03 0.03 0.03 0.03 0.02 0.03 0.05 0.04 0.03 0.02 0.03 0.06 0.06 0.06 0.08 0.07
0.02 0.01 0.01 0.01 0.00 0.00 0.00 0.00 0.01 0.01 0.02 0.02 0.01 0.01 0.00 0.00 0.00 0.00 0.00 0.00 0.00 0.01 0.01 0.01 0.01 0.02 0.03 0.03 0.03 0.03 0.03 0.04 0.05 0.07 0.07 0.06 0.05 0.05 0.08 0.08 0.07 0.08 0.09
0.01 0.01 0.01 0.01 0.02 0.02 0.02 0.03 0.03 0.04 0.02 0.01 0.01 0.00 0.00 0.00 0.00 0.00 0.00 0.00 0.00 0.00 0.00 0.01 0.01 0.02 0.03 0.04 0.04 0.05 0.06 0.08 0.09 0.10 0.09 0.07 0.05 0.06 0.07 0.07 0.06 0.04 0.03
0.03 0.04 0.05 0.06 0.07 0.07 0.06 0.04 0.03 0.02 0.01 0.00 0.00 0.00 0.00 0.00 0.00 0.00 0.00 0.00 0.00 0.00 0.01 0.01 0.01 0.01 0.02 0.02 0.04 0.08 0.12 0.12 0.11 0.11 0.09 0.08 0.05 0.04 0.05 0.06 0.06 0.07 0.07
0.11 0.13 0.15 0.15 0.14 0.10 0.05 0.02 0.01 0.00 0.00 0.00 0.00 0.00 0.01 0.00 0.00 0.00 0.00 0.00 0.00 0.01 0.01 0.02 0.01 0.01 0.01 0.02 0.03 0.06 0.05 0.06 0.08 0.11 0.10 0.07 0.06 0.06 0.09 0.10 0.12 0.13 0.11
0.25 0.25 0.22 0.17 0.11 0.05 0.02 0.00 0.00 0.00 0.00 0.00 0.00 0.00 0.01 0.01 0.00 0.00 0.00 0.00 0.00 0.01 0.01 0.02 0.01 0.01 0.02 0.04 0.03 0.02 0.01 0.01 0.02 0.05 0.08 0.08 0.09 0.10 0.13 0.16 0.17 0.17 0.12
0.25 0.18 0.11 0.07 0.03 0.01 0.00 0.00 0.00 0.00 0.00 0.00 0.00 0.00 0.01 0.02 0.00 0.00 0.00 0.00 0.00 0.00 0.01 0.01 0.01 0.02 0.05 0.07 0.04 0.03 0.02 0.01 0.02 0.06 0.11 0.15 0.18 0.20 0.21 0.21 0.24 0.26 0.19
0.08 0.04 0.02 0.01 0.00 0.00 0.00 0.00 0.00 0.00 0.00 0.00 0.00 0.00 0.01 0.02 0.01 0.00 0.00 0.00 0.00 0.00 0.00 0.00 0.02 0.05 0.05 0.05 0.03 0.05 0.07 0.05 0.06 0.10 0.15 0.20 0.22 0.29 0.32 0.27 0.27 0.26 0.22
0.02 0.01 0.00 0.00 0.00 0.00 0.00 0.00 0.00 0.00 0.00 0.00 0.00 0.01 0.01 0.01 0.01 0.00 0.00 0.00 0.00 0.00 0.01 0.01 0.04 0.07 0.05 0.04 0.06 0.06 0.10 0.12 0.14 0.16 0.16 0.18 0.20 0.23 0.23 0.20 0.20 0.21 0.24
0.00 0.00 0.00 0.00 0.00 0.00 0.00 0.00 0.00 0.00 0.00 0.00 0.00 0.00 0.01 0.01 0.01 0.00 0.00 0.00 0.00 0.00 0.01 0.03 0.06 0.08 0.06 0.08 0.09 0.11 0.14 0.17 0.18 0.18 0.18 0.19 0.18 0.18 0.18 0.16 0.16 0.18 0.22
0.00 0.00 0.00 0.00 0.00 0.00 0.00 0.00 0.00 0.00 0.00 0.00 0.00 0.00 0.01 0.01 0.01 0.00 0.00 0.00 0.01 0.01 0.03 0.06 0.10 0.11 0.12 0.13 0.16 0.18 0.19 0.18 0.18 0.17 0.18 0.19 0.16 0.13 0.12 0.11 0.14 0.19 0.23
0.00 0.00 0.00 0.00 0.00 0.00 0.00 0.00 0.00 0.01 0.00 0.00 0.01 0.01 0.01 0.01 0.00 0.00 0.00 0.00 0.01 0.01 0.02 0.06 0.14 0.19 0.22 0.23 0.23 0.21 0.17 0.16 0.16 0.16 0.15 0.13 0.10 0.08 0.08 0.10 0.14 0.18 0.21
0.00 0.00 0.00 0.00 0.00 0.00 0.00 0.00 0.01 0.01 0.00 0.00 0.01 0.00 0.00 0.00 0.01 0.02 0.01 0.01 0.01 0.02 0.02 0.03 0.07 0.13 0.17 0.17 0.17 0.16 0.14 0.11 0.10 0.09 0.10 0.09 0.08 0.08 0.07 0.08 0.11 0.12 0.15
0.00 0.00 0.00 0.00 0.00 0.00 0.01 0.01 0.00 0.00 0.00 0.00 0.00 0.00 0.01 0.02 0.02 0.02 0.01 0.01 0.02 0.03 0.02 0.04 0.08 0.12 0.17 0.16 0.16 0.17 0.14 0.11 0.09 0.09 0.09 0.09 0.09 0.10 0.11 0.11 0.10 0.12 0.15
0.00 0.00 0.00 0.00 0.00 0.00 0.01 0.02 0.02 0.01 0.00 0.00 0.00 0.01 0.01 0.01 0.01 0.01 0.01 0.02 0.03 0.03 0.02 0.04 0.09 0.13 0.16 0.15 0.14 0.16 0.17 0.14 0.12 0.11 0.10 0.09 0.10 0.10 0.09 0.10 0.11 0.10 0.10
0.00 0.00 0.00 0.00 0.00 0.00 0.00 0.01 0.01 0.02 0.02 0.02 0.01 0.00 0.00 0.01 0.02 0.02 0.02 0.01 0.02 0.02 0.04 0.07 0.10 0.12 0.16 0.17 0.14 0.13 0.13 0.12 0.12 0.13 0.13 0.10 0.08 0.08 0.08 0.08 0.08 0.07 0.07
0.00 0.00 0.00 0.00 0.00 0.00 0.00 0.00 0.01 0.01 0.01 0.01 0.01 0.00 0.01 0.02 0.03 0.03 0.03 0.02 0.03 0.05 0.08 0.10 0.11 0.12 0.13 0.15 0.14 0.12 0.11 0.10 0.10 0.11 0.12 0.12 0.11 0.09 0.06 0.06 0.05 0.06 0.06
0.00 0.00 0.00 0.00 0.00 0.00 0.00 0.00 0.00 0.00 0.01 0.01 0.01 0.01 0.01 0.02 0.02 0.02 0.03 0.03 0.05 0.08 0.11 0.13 0.12 0.10 0.10 0.10 0.10 0.10 0.10 0.09 0.09 0.10 0.10 0.10 0.09 0.08 0.06 0.05 0.05 0.04 0.03
0.00 0.00 0.00 0.00 0.00 0.00 0.00 0.00 0.00 0.00 0.00 0.00 0.01 0.01 0.03 0.04 0.05 0.05 0.05 0.05 0.06 0.10 0.14 0.15 0.12 0.09 0.08 0.09 0.09 0.07 0.07 0.07 0.07 0.09 0.09 0.07 0.06 0.05 0.04 0.03 0.01 0.01 0.01
0.00 0.00 0.00 0.00 0.00 0.00 0.00 0.00 0.00 0.00 0.00 0.00 0.00 0.01 0.04 0.05 0.06 0.08 0.09 0.07 0.07 0.09 0.12 0.12 0.10 0.08 0.07 0.08 0.08 0.07 0.06 0.05 0.06 0.08 0.08 0.05 0.03 0.02 0.01 0.01 0.00 0.00 0.00
0.00 0.00 0.00 0.00 0.00 0.00 0.00 0.00 0.00 0.00 0.00 0.00 0.00 0.00 0.02 0.04 0.08 0.11 0.11 0.08 0.06 0.07 0.08 0.08 0.06 0.05 0.04 0.04 0.04 0.04 0.03 0.03 0.05 0.06 0.06 0.03 0.01 0.01 0.01 0.00 0.00 0.00 0.00
0.00 0.00 0.00 0.00 0.00 0.00 0.00 0.00 0.00 0.00 0.00 0.00 0.00 0.00 0.01 0.02 0.05 0.09 0.11 0.09 0.06 0.05 0.04 0.04 0.03 0.02 0.02 0.02 0.02 0.01 0.01 0.01 0.02 0.03 0.03 0.01 0.00 0.00 0.00 0.00 0.00 0.00 0.00
0.00 0.00 0.00 0.00 0.00 0.00 0.00 0.00 0.00 0.00 0.00 0.00 0.00 0.00 0.00 0.00 0.02 0.03 0.05 0.06 0.07 0.05 0.03 0.02 0.01 0.01 0.01 0.01 0.01 0.00 0.00 0.01 0.00 0.01 0.02 0.01 0.01 0.00 0.00 0.00 0.00 0.00 0.00
0.00 0.00 0.00 0.00 0.00 0.00 0.00 0.00 0.00 0.00 0.00 0.00 0.00 0.00 0.00 0.00 0.00 0.01 0.01 0.02 0.03 0.04 0.03 0.02 0.01 0.00 0.00 0.00 0.00 0.01 0.01 0.01 0.01 0.00 0.01 0.01 0.01 0.00 0.00 0.00 0.00 0.00 0.00

GEFSGL_prec_meanprecacc_024.txt.gz
Total_Precipitation_Accumulation
0.27 0.22 0.16 0.12 0.08 0.05 0.03 0.02 0.01 0.01 0.00 0.00 0.00 0.00 0.00 0.00 0.00 0.00 0.00 0.00 0.01 0.02 0.02 0.03 0.03 0.04 0.04 0.04 0.04 0.04 0.03 0.03 0.04 0.02 0.01 0.01 0.02 0.02 0.02 0.03 0.03 0.05 0.05
0.13 0.10 0.07 0.05 0.04 0.03 0.02 0.01 0.00 0.00 0.00 0.00 0.00 0.00 0.00 0.00 0.00 0.01 0.01 0.01 0.02 0.03 0.03 0.04 0.04 0.04 0.05 0.04 0.04 0.03 0.03 0.05 0.06 0.05 0.03 0.02 0.03 0.03 0.05 0.07 0.05 0.04 0.06
0.06 0.05 0.03 0.02 0.02 0.01 0.01 0.00 0.00 0.00 0.00 0.00 0.00 0.01 0.01 0.01 0.00 0.01 0.01 0.01 0.02 0.02 0.02 0.02 0.02 0.02 0.03 0.03 0.04 0.03 0.03 0.04 0.06 0.08 0.06 0.05 0.04 0.05 0.09 0.09 0.08 0.10 0.09
0.02 0.02 0.01 0.01 0.01 0.00 0.01 0.01 0.01 0.01 0.02 0.02 0.02 0.01 0.00 0.00 0.00 0.00 0.00 0.00 0.00 0.01 0.01 0.01 0.01 0.02 0.03 0.04 0.04 0.04 0.06 0.07 0.09 0.12 0.11 0.09 0.07 0.06 0.11 0.11 0.10 0.10 0.10
0.01 0.01 0.01 0.02 0.02 0.03 0.03 0.03 0.04 0.04 0.03 0.02 0.01 0.00 0.00 0.00 0.00 0.00 0.00 0.00 0.00 0.00 0.00 0.01 0.01 0.02 0.04 0.05 0.05 0.07 0.10 0.13 0.14 0.16 0.14 0.10 0.07 0.08 0.10 0.11 0.10 0.07 0.05
0.03 0.04 0.06 0.07 0.08 0.08 0.07 0.05 0.04 0.02 0.01 0.00 0.00 0.00 0.00 0.00 0.00 0.00 0.00 0.00 0.00 0.01 0.01 0.01 0.01 0.02 0.02 0.02 0.04 0.09 0.15 0.17 0.16 0.16 0.14 0.12 0.08 0.08 0.09 0.10 0.10 0.11 0.10
0.12 0.14 0.16 0.17 0.15 0.11 0.06 0.03 0.01 0.00 0.00 0.00 0.00 0.00 0.01 0.00 0.00 0.00 0.00 0.00 0.01 0.01 0.02 0.02 0.02 0.01 0.02 0.03 0.04 0.06 0.06 0.07 0.11 0.15 0.16 0.13 0.11 0.11 0.14 0.16 0.17 0.18 0.15
0.27 0.27 0.24 0.19 0.13 0.06 0.02 0.01 0.00 0.00 0.00 0.00 0.00 0.01 0.01 0.01 0.00 0.00 0.00 0.00 0.01 0.01 0.02 0.02 0.02 0.02 0.03 0.05 0.04 0.03 0.03 0.03 0.04 0.07 0.12 0.13 0.13 0.15 0.18 0.21 0.22 0.22 0.16
0.29 0.22 0.14 0.09 0.05 0.02 0.01 0.00 0.00 0.00 0.00 0.00 0.00 0.01 0.01 0.03 0.01 0.00 0.00 0.00 0.01 0.01 0.01 0.01 0.02 0.03 0.06 0.07 0.05 0.04 0.04 0.03 0.03 0.06 0.13 0.18 0.20 0.23 0.24 0.25 0.30 0.31 0.22
0.12 0.07 0.04 0.02 0.01 0.00 0.00 0.00 0.00 0.00 0.00 0.00 0.00 0.00 0.01 0.03 0.01 0.00 0.00 0.00 0.00 0.00 0.00 0.01 0.03 0.05 0.05 0.05 0.04 0.06 0.09 0.07 0.08 0.12 0.18 0.23 0.25 0.33 0.35 0.31 0.32 0.31 0.26
0.03 0.02 0.01 0.00 0.00 0.00 0.00 0.00 0.00 0.01 0.00 0.00 0.00 0.01 0.01 0.01 0.01 0.00 0.00 0.00 0.00 0.01 0.01 0.02 0.04 0.07 0.05 0.04 0.06 0.08 0.12 0.13 0.17 0.21 0.21 0.22 0.24 0.27 0.28 0.24 0.24 0.26 0.31
0.01 0.01 0.00 0.00 0.00 0.00 0.00 0.01 0.01 0.01 0.01 0.01 0.01 0.01 0.01 0.02 0.01 0.00 0.00 0.00 0.00 0.01 0.02 0.04 0.07 0.08 0.06 0.09 0.10 0.12 0.15 0.19 0.23 0.23 0.22 0.22 0.21 0.22 0.22 0.20 0.19 0.22 0.27
0.01 0.01 0.00 0.00 0.00 0.00 0.00 0.01 0.01 0.01 0.01 0.01 0.01 0.01 0.01 0.02 0.01 0.00 0.00 0.00 0.01 0.02 0.04 0.07 0.10 0.11 0.13 0.15 0.17 0.19 0.21 0.22 0.22 0.22 0.22 0.23 0.20 0.17 0.15 0.14 0.17 0.22 0.27
0.01 0.01 0.01 0.01 0.00 0.00 0.00 0.01 0.01 0.01 0.01 0.01 0.01 0.01 0.01 0.01 0.01 0.01 0.00 0.00 0.01 0.02 0.03 0.07 0.14 0.20 0.23 0.24 0.24 0.24 0.22 0.21 0.21 0.20 0.20 0.17 0.13 0.11 0.10 0.12 0.17 0.21 0.24
0.02 0.01 0.01 0.01 0.00 0.01 0.01 0.01 0.01 0.01 0.00 0.01 0.01 0.01 0.01 0.01 0.01 0.02 0.01 0.01 0.01 0.02 0.02 0.05 0.09 0.14 0.18 0.18 0.19 0.19 0.20 0.17 0.16 0.14 0.14 0.13 0.11 0.11 0.11 0.11 0.14 0.15 0.18
0.02 0.01 0.01 0.00 0.00 0.00 0.01 0.02 0.01 0.00 0.00 0.00 0.00 0.00 0.01 0.02 0.02 0.02 0.01 0.01 0.02 0.03 0.03 0.05 0.09 0.14 0.18 0.17 0.18 0.19 0.19 0.17 0.15 0.14 0.14 0.13 0.12 0.13 0.15 0.14 0.14 0.15 0.19
0.01 0.01 0.00 0.00 0.00 0.01 0.01 0.03 0.04 0.02 0.01 0.00 0.00 0.01 0.01 0.01 0.01 0.01 0.01 0.02 0.03 0.04 0.03 0.05 0.10 0.15 0.18 0.16 0.16 0.18 0.20 0.18 0.16 0.15 0.14 0.14 0.14 0.14 0.13 0.13 0.14 0.13 0.13
0.01 0.00 0.00 0.01 0.01 0.01 0.01 0.02 0.02 0.03 0.03 0.02 0.01 0.01 0.01 0.01 0.02 0.02 0.02 0.02 0.02 0.03 0.05 0.08 0.11 0.14 0.18 0.18 0.15 0.14 0.15 0.15 0.15 0.15 0.15 0.13 0.12 0.12 0.11 0.11 0.10 0.09 0.09
0.00 0.01 0.00 0.00 0.00 0.00 0.00 0.00 0.01 0.01 0.01 0.02 0.02 0.01 0.02 0.03 0.04 0.04 0.04 0.03 0.04 0.06 0.09 0.11 0.13 0.14 0.15 0.16 0.15 0.13 0.12 0.12 0.12 0.12 0.13 0.13 0.13 0.11 0.09 0.07 0.06 0.06 0.07
0.00 0.00 0.00 0.00 0.00 0.00 0.00 0.00 0.00 0.00 0.01 0.01 0.02 0.01 0.02 0.03 0.03 0.04 0.04 0.05 0.06 0.09 0.12 0.14 0.13 0.12 0.12 0.12 0.11 0.11 0.11 0.10 0.09 0.10 0.10 0.10 0.10 0.09 0.08 0.06 0.05 0.04 0.04
0.00 0.00 0.00 0.00 0.00 0.00 0.00 0.00 0.00 0.00 0.00 0.01 0.01 0.02 0.05 0.06 0.07 0.07 0.08 0.07 0.08 0.12 0.15 0.15 0.13 0.11 0.10 0.10 0.09 0.08 0.07 0.07 0.08 0.09 0.09 0.07 0.06 0.05 0.04 0.03 0.02 0.01 0.01
0.00 0.00 0.00 0.00 0.00 0.00 0.00 0.00 0.00 0.00 0.00 0.00 0.01 0.02 0.05 0.06 0.08 0.10 0.11 0.10 0.10 0.11 0.13 0.13 0.10 0.09 0.08 0.08 0.08 0.07 0.06 0.05 0.06 0.08 0.08 0.05 0.03 0.02 0.01 0.01 0.00 0.00 0.00
0.00 0.00 0.00 0.00 0.00 0.00 0.00 0.00 0.00 0.00 0.00 0.00 0.00 0.01 0.02 0.05 0.09 0.12 0.13 0.11 0.08 0.08 0.09 0.08 0.07 0.05 0.04 0.04 0.04 0.04 0.03 0.03 0.05 0.06 0.06 0.03 0.01 0.01 0.01 0.00 0.00 0.00 0.00
0.00 0.00 0.00 0.00 0.00 0.00 0.00 0.00 0.00 0.00 0.00 0.00 0.00 0.00 0.01 0.03 0.06 0.10 0.12 0.11 0.07 0.06 0.04 0.04 0.03 0.03 0.02 0.02 0.02 0.01 0.01 0.01 0.02 0.03 0.03 0.01 0.00 0.00 0.00 0.00 0.00 0.00 0.00
0.00 0.00 0.00 0.00 0.00 0.00 0.00 0.00 0.00 0.00 0.00 0.00 0.00 0.00 0.00 0.01 0.02 0.04 0.06 0.08 0.08 0.06 0.04 0.02 0.01 0.01 0.01 0.01 0.01 0.00 0.00 0.01 0.00 0.01 0.02 0.01 0.01 0.00 0.00 0.00 0.00 0.00 0.00
0.00 0.00 0.00 0.00 0.00 0.00 0.00 0.00 0.00 0.00 0.00 0.00 0.00 0.00 0.00 0.00 0.00 0.01 0.02 0.04 0.05 0.05 0.03 0.02 0.01 0.00 0.00 0.00 0.00 0.01 0.01 0.01 0.01 0.00 0.01 0.01 0.01 0.00 0.00 0.00 0.00 0.00 0.01

GEFSGL_prec_meanprecacc_030.txt.gz
Total_Precipitation_Accumulation
0.31 0.26 0.19 0.14 0.09 0.06 0.04 0.02 0.02 0.01 0.01 0.00 0.00 0.00 0.00 0.00 0.00 0.00 0.00 0.01 0.01 0.02 0.02 0.03 0.03 0.04 0.04 0.04 0.04 0.04 0.03 0.03 0.04 0.02 0.01 0.01 0.02 0.03 0.03 0.04 0.04 0.06 0.06
0.15 0.11 0.08 0.06 0.04 0.03 0.02 0.01 0.01 0.00 0.00 0.00 0.00 0.00 0.00 0.00 0.00 0.01 0.01 0.01 0.02 0.03 0.03 0.04 0.04 0.04 0.05 0.05 0.04 0.04 0.04 0.05 0.06 0.05 0.03 0.02 0.03 0.04 0.06 0.08 0.06 0.05 0.07
0.07 0.05 0.04 0.03 0.02 0.02 0.01 0.01 0.01 0.00 0.00 0.00 0.01 0.01 0.01 0.01 0.00 0.01 0.01 0.01 0.02 0.02 0.02 0.02 0.02 0.02 0.03 0.04 0.04 0.04 0.04 0.04 0.07 0.09 0.07 0.06 0.05 0.06 0.10 0.11 0.10 0.12 0.10
0.03 0.02 0.01 0.01 0.01 0.01 0.01 0.01 0.01 0.01 0.02 0.02 0.02 0.01 0.00 0.00 0.00 0.00 0.00 0.00 0.00 0.01 0.01 0.01 0.01 0.02 0.04 0.05 0.05 0.05 0.06 0.08 0.10 0.13 0.13 0.10 0.08 0.07 0.13 0.14 0.12 0.12 0.12
0.01 0.01 0.02 0.02 0.03 0.03 0.03 0.04 0.04 0.04 0.03 0.02 0.01 0.00 0.00 0.00 0.00 0.00 0.00 0.00 0.00 0.00 0.01 0.01 0.01 0.02 0.04 0.05 0.05 0.07 0.11 0.15 0.16 0.18 0.16 0.12 0.08 0.10 0.13 0.14 0.13 0.09 0.06
0.05 0.06 0.07 0.08 0.08 0.08 0.07 0.05 0.04 0.02 0.01 0.00 0.00 0.00 0.00 0.00 0.00 0.00 0.00 0.00 0.00 0.01 0.01 0.02 0.02 0.02 0.02 0.02 0.05 0.10 0.16 0.19 0.19 0.19 0.18 0.16 0.12 0.12 0.14 0.15 0.15 0.15 0.12
0.14 0.15 0.17 0.17 0.15 0.11 0.06 0.03 0.01 0.01 0.01 0.01 0.01 0.00 0.01 0.01 0.00 0.00 0.00 0.00 0.01 0.02 0.03 0.03 0.02 0.01 0.02 0.04 0.05 0.07 0.07 0.08 0.14 0.21 0.22 0.19 0.17 0.17 0.20 0.21 0.22 0.24 0.19
0.28 0.28 0.25 0.20 0.14 0.07 0.03 0.01 0.01 0.01 0.01 0.01 0.01 0.01 0.02 0.01 0.00 0.00 0.00 0.00 0.01 0.02 0.03 0.03 0.03 0.03 0.04 0.05 0.04 0.03 0.03 0.05 0.07 0.12 0.18 0.18 0.18 0.19 0.23 0.26 0.27 0.27 0.20
0.32 0.25 0.16 0.10 0.06 0.03 0.02 0.01 0.01 0.01 0.01 0.01 0.01 0.01 0.02 0.03 0.01 0.00 0.00 0.00 0.01 0.01 0.02 0.02 0.03 0.05 0.06 0.07 0.05 0.05 0.05 0.05 0.05 0.08 0.14 0.20 0.22 0.24 0.26 0.28 0.35 0.38 0.27
0.14 0.08 0.05 0.03 0.02 0.02 0.01 0.01 0.01 0.01 0.01 0.01 0.01 0.01 0.02 0.04 0.01 0.00 0.00 0.00 0.01 0.01 0.01 0.02 0.03 0.06 0.05 0.05 0.04 0.07 0.11 0.09 0.10 0.15 0.22 0.27 0.30 0.37 0.39 0.37 0.41 0.41 0.33
0.04 0.02 0.02 0.01 0.01 0.01 0.01 0.01 0.01 0.01 0.02 0.02 0.01 0.02 0.03 0.02 0.01 0.00 0.00 0.00 0.01 0.01 0.02 0.03 0.06 0.07 0.05 0.04 0.06 0.10 0.14 0.14 0.19 0.26 0.27 0.27 0.28 0.32 0.33 0.32 0.33 0.35 0.38
0.02 0.01 0.01 0.01 0.00 0.00 0.01 0.02 0.02 0.02 0.03 0.03 0.03 0.02 0.02 0.02 0.02 0.00 0.00 0.00 0.00 0.02 0.04 0.06 0.08 0.08 0.06 0.09 0.10 0.13 0.15 0.20 0.27 0.30 0.28 0.27 0.25 0.26 0.27 0.25 0.26 0.28 0.33
0.04 0.03 0.02 0.01 0.01 0.00 0.01 0.02 0.02 0.03 0.03 0.02 0.03 0.03 0.03 0.03 0.02 0.00 0.00 0.00 0.01 0.02 0.05 0.08 0.10 0.11 0.13 0.17 0.19 0.19 0.23 0.28 0.30 0.29 0.29 0.28 0.24 0.21 0.19 0.18 0.20 0.26 0.31
0.07 0.06 0.04 0.03 0.02 0.01 0.01 0.02 0.03 0.04 0.02 0.02 0.03 0.03 0.03 0.03 0.02 0.01 0.01 0.01 0.01 0.03 0.04 0.08 0.15 0.21 0.24 0.27 0.29 0.31 0.31 0.30 0.27 0.27 0.26 0.23 0.17 0.14 0.13 0.15 0.19 0.23 0.27
0.09 0.06 0.03 0.02 0.01 0.02 0.03 0.02 0.02 0.03 0.00 0.01 0.02 0.02 0.02 0.02 0.02 0.02 0.01 0.01 0.02 0.02 0.02 0.06 0.12 0.17 0.21 0.22 0.25 0.28 0.30 0.27 0.24 0.22 0.21 0.19 0.15 0.13 0.13 0.14 0.17 0.18 0.21
0.08 0.04 0.02 0.01 0.01 0.01 0.03 0.05 0.02 0.00 0.00 0.00 0.00 0.01 0.01 0.02 0.02 0.02 0.01 0.01 0.02 0.03 0.03 0.07 0.11 0.15 0.20 0.20 0.22 0.25 0.26 0.25 0.23 0.21 0.20 0.18 0.16 0.16 0.18 0.17 0.17 0.18 0.22
0.03 0.02 0.01 0.01 0.01 0.02 0.02 0.07 0.09 0.05 0.01 0.00 0.00 0.01 0.01 0.01 0.01 0.01 0.01 0.02 0.03 0.04 0.05 0.08 0.12 0.17 0.20 0.19 0.20 0.24 0.27 0.26 0.23 0.20 0.19 0.17 0.16 0.16 0.15 0.15 0.16 0.16 0.15
0.01 0.00 0.01 0.01 0.01 0.01 0.01 0.02 0.05 0.08 0.07 0.05 0.02 0.01 0.01 0.01 0.02 0.03 0.03 0.03 0.04 0.05 0.08 0.11 0.13 0.16 0.20 0.21 0.20 0.20 0.21 0.20 0.18 0.18 0.18 0.16 0.15 0.14 0.13 0.12 0.11 0.10 0.10
0.01 0.01 0.01 0.00 0.00 0.00 0.01 0.01 0.01 0.03 0.06 0.07 0.05 0.03 0.02 0.04 0.05 0.06 0.06 0.05 0.06 0.07 0.11 0.14 0.17 0.17 0.19 0.21 0.21 0.19 0.17 0.15 0.13 0.13 0.14 0.15 0.15 0.13 0.10 0.08 0.07 0.07 0.08
0.00 0.01 0.00 0.00 0.00 0.00 0.00 0.00 0.00 0.01 0.03 0.04 0.04 0.02 0.03 0.05 0.06 0.07 0.07 0.06 0.08 0.11 0.13 0.16 0.15 0.15 0.17 0.16 0.14 0.14 0.14 0.12 0.10 0.10 0.11 0.10 0.10 0.10 0.08 0.07 0.06 0.05 0.05
0.00 0.00 0.00 0.00 0.00 0.00 0.00 0.00 0.00 0.00 0.01 0.02 0.02 0.02 0.05 0.07 0.10 0.10 0.10 0.10 0.10 0.13 0.16 0.16 0.15 0.14 0.14 0.13 0.11 0.09 0.08 0.08 0.09 0.10 0.09 0.07 0.06 0.05 0.04 0.03 0.02 0.01 0.01
0.00 0.00 0.00 0.00 0.00 0.00 0.00 0.00 0.00 0.00 0.01 0.01 0.02 0.03 0.06 0.07 0.10 0.13 0.14 0.12 0.12 0.13 0.15 0.14 0.13 0.12 0.11 0.10 0.10 0.08 0.06 0.06 0.07 0.10 0.10 0.06 0.03 0.02 0.02 0.01 0.01 0.01 0.01
0.00 0.00 0.00 0.00 0.00 0.00 0.00 0.00 0.00 0.00 0.00 0.01 0.01 0.02 0.04 0.07 0.11 0.14 0.15 0.13 0.10 0.10 0.11 0.11 0.10 0.09 0.07 0.06 0.05 0.04 0.03 0.03 0.05 0.08 0.08 0.04 0.02 0.01 0.01 0.01 0.01 0.01 0.00
0.00 0.00 0.00 0.00 0.00 0.00 0.00 0.00 0.00 0.00 0.00 0.00 0.01 0.01 0.02 0.04 0.08 0.11 0.14 0.12 0.09 0.08 0.07 0.07 0.06 0.05 0.03 0.03 0.02 0.01 0.01 0.01 0.02 0.03 0.04 0.03 0.02 0.01 0.01 0.01 0.01 0.01 0.01
0.00 0.00 0.00 0.00 0.00 0.00 0.00 0.00 0.00 0.00 0.00 0.00 0.01 0.01 0.01 0.01 0.03 0.06 0.08 0.10 0.09 0.08 0.06 0.04 0.03 0.02 0.01 0.01 0.01 0.00 0.00 0.01 0.00 0.01 0.02 0.02 0.01 0.01 0.01 0.01 0.01 0.02 0.02
0.00 0.00 0.00 0.00 0.00 0.00 0.00 0.00 0.00 0.00 0.00 0.00 0.00 0.01 0.01 0.01 0.02 0.03 0.04 0.06 0.06 0.06 0.05 0.04 0.02 0.01 0.00 0.00 0.00 0.01 0.01 0.01 0.01 0.01 0.01 0.02 0.01 0.01 0.01 0.01 0.01 0.02 0.02

GEFSGL_prec_meanprecacc_036.txt.gz
Total_Precipitation_Accumulation
0.40 0.35 0.28 0.24 0.17 0.13 0.09 0.06 0.04 0.03 0.02 0.02 0.02 0.01 0.00 0.00 0.00 0.00 0.00 0.01 0.01 0.02 0.02 0.03 0.03 0.04 0.04 0.04 0.04 0.04 0.03 0.03 0.04 0.02 0.01 0.01 0.02 0.03 0.03 0.04 0.04 0.06 0.06
0.20 0.16 0.13 0.11 0.08 0.07 0.05 0.03 0.03 0.03 0.02 0.01 0.01 0.01 0.01 0.01 0.01 0.01 0.01 0.02 0.02 0.03 0.03 0.04 0.04 0.04 0.05 0.05 0.04 0.04 0.04 0.05 0.06 0.05 0.03 0.02 0.03 0.04 0.06 0.08 0.06 0.05 0.07
0.10 0.08 0.06 0.05 0.05 0.04 0.04 0.04 0.04 0.03 0.02 0.02 0.02 0.02 0.02 0.02 0.01 0.01 0.01 0.01 0.02 0.02 0.02 0.02 0.02 0.02 0.03 0.04 0.04 0.04 0.04 0.04 0.07 0.09 0.07 0.06 0.05 0.06 0.11 0.11 0.10 0.12 0.10
0.06 0.05 0.05 0.04 0.03 0.04 0.04 0.04 0.04 0.04 0.04 0.04 0.03 0.02 0.01 0.01 0.00 0.00 0.00 0.00 0.00 0.01 0.01 0.01 0.01 0.02 0.04 0.05 0.05 0.05 0.06 0.08 0.10 0.13 0.13 0.10 0.08 0.07 0.13 0.14 0.12 0.12 0.12
0.07 0.07 0.06 0.06 0.06 0.06 0.06 0.06 0.06 0.05 0.04 0.02 0.01 0.01 0.01 0.00 0.00 0.00 0.00 0.00 0.00 0.00 0.01 0.01 0.01 0.02 0.04 0.05 0.05 0.07 0.11 0.15 0.16 0.18 0.16 0.12 0.09 0.10 0.13 0.15 0.14 0.10 0.06
0.14 0.13 0.13 0.12 0.12 0.11 0.09 0.07 0.05 0.03 0.02 0.01 0.01 0.01 0.01 0.00 0.00 0.00 0.00 0.00 0.00 0.01 0.01 0.02 0.02 0.02 0.02 0.02 0.05 0.10 0.16 0.19 0.19 0.20 0.18 0.17 0.12 0.13 0.15 0.16 0.17 0.17 0.14
0.26 0.25 0.24 0.22 0.19 0.14 0.07 0.04 0.02 0.02 0.01 0.01 0.01 0.01 0.01 0.01 0.00 0.00 0.00 0.00 0.01 0.02 0.03 0.03 0.02 0.01 0.02 0.04 0.05 0.07 0.07 0.08 0.14 0.22 0.23 0.20 0.18 0.18 0.23 0.23 0.24 0.25 0.20
0.36 0.34 0.30 0.24 0.17 0.09 0.05 0.03 0.02 0.02 0.02 0.01 0.01 0.01 0.02 0.01 0.00 0.00 0.00 0.00 0.01 0.02 0.03 0.03 0.03 0.03 0.04 0.05 0.04 0.03 0.03 0.05 0.08 0.12 0.19 0.19 0.19 0.21 0.25 0.27 0.28 0.28 0.21
0.34 0.27 0.18 0.12 0.07 0.04 0.03 0.02 0.02 0.02 0.01 0.01 0.01 0.01 0.02 0.03 0.01 0.00 0.00 0.00 0.01 0.01 0.02 0.02 0.03 0.05 0.06 0.07 0.05 0.05 0.05 0.05 0.05 0.08 0.14 0.21 0.23 0.26 0.27 0.30 0.36 0.40 0.30
0.14 0.08 0.05 0.04 0.03 0.02 0.02 0.02 0.02 0.01 0.01 0.01 0.01 0.01 0.02 0.04 0.01 0.00 0.00 0.00 0.01 0.01 0.01 0.02 0.03 0.06 0.05 0.05 0.04 0.07 0.11 0.09 0.10 0.15 0.22 0.28 0.31 0.39 0.40 0.38 0.43 0.43 0.36
0.04 0.03 0.02 0.01 0.01 0.01 0.01 0.01 0.01 0.01 0.02 0.02 0.02 0.02 0.03 0.02 0.01 0.00 0.00 0.00 0.01 0.01 0.02 0.03 0.06 0.07 0.05 0.04 0.06 0.10 0.14 0.14 0.19 0.27 0.28 0.28 0.29 0.33 0.34 0.32 0.34 0.37 0.41
0.02 0.02 0.01 0.01 0.01 0.01 0.01 0.02 0.02 0.03 0.03 0.03 0.03 0.03 0.02 0.02 0.02 0.00 0.00 0.00 0.00 0.02 0.04 0.06 0.08 0.08 0.06 0.09 0.10 0.13 0.15 0.21 0.28 0.31 0.30 0.28 0.26 0.26 0.27 0.26 0.26 0.29 0.34
0.04 0.04 0.02 0.02 0.01 0.01 0.01 0.02 0.03 0.04 0.03 0.03 0.03 0.03 0.03 0.03 0.02 0.00 0.00 0.00 0.01 0.02 0.05 0.08 0.10 0.11 0.13 0.17 0.19 0.20 0.24 0.29 0.31 0.31 0.30 0.29 0.25 0.21 0.19 0.18 0.21 0.26 0.32
0.10 0.07 0.04 0.04 0.03 0.02 0.02 0.02 0.03 0.04 0.02 0.02 0.03 0.03 0.03 0.03 0.02 0.01 0.01 0.01 0.01 0.03 0.04 0.08 0.15 0.21 0.24 0.27 0.30 0.33 0.33 0.32 0.29 0.28 0.27 0.23 0.18 0.14 0.13 0.15 0.20 0.23 0.27
0.12 0.08 0.04 0.03 0.03 0.03 0.04 0.03 0.02 0.03 0.01 0.01 0.02 0.02 0.02 0.02 0.02 0.02 0.01 0.01 0.02 0.02 0.02 0.06 0.12 0.17 0.21 0.23 0.26 0.29 0.31 0.29 0.25 0.23 0.21 0.19 0.15 0.13 0.13 0.14 0.17 0.18 0.21
0.09 0.06 0.03 0.02 0.03 0.03 0.05 0.07 0.03 0.00 0.00 0.00 0.00 0.01 0.01 0.02 0.02 0.02 0.01 0.01 0.02 0.03 0.03 0.07 0.12 0.17 0.21 0.22 0.23 0.26 0.28 0.27 0.24 0.21 0.20 0.18 0.16 0.16 0.18 0.18 0.17 0.18 0.22
0.03 0.02 0.01 0.02 0.02 0.03 0.05 0.09 0.11 0.05 0.01 0.00 0.00 0.01 0.01 0.02 0.02 0.02 0.01 0.02 0.03 0.05 0.06 0.10 0.14 0.19 0.23 0.21 0.21 0.25 0.28 0.27 0.24 0.21 0.19 0.17 0.17 0.16 0.15 0.16 0.16 0.16 0.16
0.01 0.01 0.01 0.01 0.02 0.03 0.03 0.04 0.07 0.09 0.08 0.05 0.02 0.01 0.01 0.02 0.03 0.04 0.03 0.04 0.05 0.07 0.11 0.14 0.16 0.19 0.23 0.24 0.22 0.22 0.22 0.21 0.19 0.18 0.18 0.16 0.15 0.14 0.13 0.12 0.11 0.10 0.11
0.01 0.01 0.01 0.01 0.01 0.02 0.02 0.02 0.02 0.03 0.06 0.08 0.06 0.03 0.03 0.05 0.07 0.08 0.08 0.07 0.08 0.11 0.13 0.16 0.18 0.19 0.21 0.23 0.22 0.20 0.17 0.16 0.14 0.13 0.15 0.15 0.15 0.13 0.10 0.09 0.08 0.07 0.08
0.01 0.01 0.01 0.00 0.00 0.01 0.01 0.00 0.01 0.02 0.03 0.05 0.05 0.03 0.04 0.08 0.10 0.10 0.09 0.08 0.10 0.13 0.15 0.17 0.17 0.17 0.19 0.18 0.15 0.14 0.14 0.12 0.11 0.11 0.11 0.11 0.10 0.10 0.08 0.07 0.06 0.05 0.05
0.00 0.00 0.00 0.00 0.00 0.00 0.00 0.00 0.00 0.01 0.02 0.03 0.03 0.03 0.06 0.09 0.12 0.12 0.13 0.11 0.11 0.14 0.17 0.18 0.16 0.15 0.15 0.14 0.12 0.09 0.08 0.08 0.09 0.10 0.10 0.08 0.07 0.05 0.04 0.03 0.02 0.02 0.02
0.00 0.00 0.00 0.00 0.00 0.00 0.00 0.00 0.00 0.00 0.01 0.02 0.02 0.03 0.07 0.08 0.11 0.14 0.16 0.15 0.14 0.15 0.16 0.16 0.14 0.13 0.11 0.11 0.10 0.08 0.06 0.06 0.07 0.10 0.10 0.07 0.05 0.03 0.02 0.01 0.01 0.02 0.01
0.00 0.00 0.00 0.00 0.00 0.00 0.00 0.00 0.00 0.00 0.00 0.01 0.01 0.02 0.04 0.07 0.11 0.15 0.16 0.14 0.11 0.11 0.12 0.12 0.11 0.09 0.07 0.06 0.05 0.04 0.03 0.03 0.05 0.08 0.09 0.05 0.03 0.03 0.02 0.02 0.02 0.02 0.01
0.00 0.00 0.00 0.00 0.00 0.00 0.00 0.00 0.00 0.00 0.00 0.00 0.01 0.01 0.02 0.04 0.08 0.12 0.14 0.13 0.10 0.09 0.08 0.07 0.07 0.05 0.04 0.03 0.02 0.01 0.01 0.01 0.02 0.03 0.05 0.04 0.03 0.02 0.02 0.02 0.02 0.02 0.02
0.00 0.00 0.00 0.00 0.00 0.00 0.00 0.00 0.00 0.00 0.00 0.00 0.01 0.01 0.01 0.02 0.03 0.06 0.08 0.10 0.10 0.08 0.06 0.04 0.03 0.02 0.01 0.01 0.01 0.00 0.00 0.01 0.00 0.01 0.02 0.02 0.01 0.01 0.01 0.01 0.01 0.02 0.03
0.00 0.00 0.00 0.00 0.00 0.00 0.00 0.00 0.00 0.00 0.00 0.00 0.01 0.01 0.01 0.01 0.02 0.03 0.04 0.06 0.07 0.06 0.06 0.04 0.02 0.01 0.00 0.00 0.00 0.01 0.01 0.01 0.01 0.01 0.01 0.02 0.01 0.01 0.01 0.01 0.01 0.02 0.02

GEFSGL_prec_meanprecacc_042.txt.gz
Total_Precipitation_Accumulation
0.55 0.50 0.41 0.36 0.30 0.24 0.19 0.15 0.12 0.09 0.08 0.07 0.06 0.04 0.03 0.02 0.01 0.01 0.01 0.01 0.02 0.02 0.03 0.03 0.03 0.04 0.04 0.04 0.04 0.04 0.03 0.03 0.04 0.02 0.01 0.01 0.02 0.03 0.03 0.04 0.04 0.06 0.06
0.32 0.28 0.24 0.21 0.18 0.16 0.14 0.12 0.10 0.10 0.09 0.07 0.06 0.04 0.03 0.03 0.03 0.03 0.03 0.03 0.03 0.03 0.03 0.04 0.04 0.04 0.05 0.05 0.04 0.04 0.04 0.05 0.06 0.05 0.03 0.02 0.03 0.04 0.06 0.08 0.06 0.05 0.07
0.18 0.16 0.15 0.14 0.15 0.14 0.14 0.13 0.11 0.10 0.09 0.08 0.06 0.05 0.05 0.04 0.04 0.03 0.03 0.02 0.02 0.02 0.02 0.02 0.02 0.02 0.03 0.04 0.04 0.04 0.04 0.04 0.07 0.09 0.07 0.06 0.05 0.06 0.11 0.11 0.10 0.12 0.10
0.13 0.12 0.11 0.10 0.10 0.11 0.12 0.12 0.12 0.12 0.12 0.11 0.09 0.07 0.05 0.04 0.03 0.02 0.01 0.00 0.00 0.01 0.01 0.01 0.01 0.02 0.04 0.05 0.05 0.05 0.06 0.08 0.10 0.13 0.13 0.10 0.08 0.07 0.13 0.14 0.12 0.12 0.12
0.15 0.14 0.13 0.13 0.13 0.14 0.14 0.15 0.16 0.15 0.12 0.10 0.07 0.05 0.04 0.02 0.01 0.01 0.00 0.00 0.00 0.00 0.01 0.01 0.01 0.02 0.04 0.05 0.05 0.07 0.11 0.15 0.16 0.18 0.16 0.12 0.09 0.10 0.13 0.15 0.14 0.10 0.07
0.25 0.23 0.23 0.22 0.22 0.20 0.18 0.16 0.13 0.10 0.07 0.05 0.04 0.03 0.02 0.01 0.01 0.00 0.00 0.00 0.00 0.01 0.01 0.02 0.02 0.02 0.02 0.02 0.05 0.10 0.16 0.19 0.19 0.20 0.18 0.17 0.12 0.13 0.15 0.17 0.18 0.18 0.14
0.35 0.33 0.32 0.30 0.26 0.19 0.12 0.08 0.06 0.05 0.04 0.04 0.03 0.02 0.02 0.01 0.00 0.00 0.00 0.00 0.01 0.02 0.03 0.03 0.02 0.01 0.02 0.04 0.05 0.07 0.07 0.08 0.14 0.22 0.23 0.20 0.19 0.19 0.24 0.24 0.25 0.26 0.21
0.43 0.40 0.35 0.28 0.21 0.13 0.07 0.06 0.05 0.05 0.04 0.02 0.01 0.01 0.02 0.01 0.00 0.00 0.00 0.00 0.01 0.02 0.03 0.03 0.03 0.03 0.04 0.05 0.04 0.03 0.03 0.05 0.08 0.12 0.19 0.19 0.20 0.21 0.25 0.28 0.29 0.28 0.21
0.38 0.30 0.21 0.14 0.10 0.06 0.04 0.04 0.03 0.03 0.02 0.01 0.01 0.01 0.02 0.03 0.01 0.00 0.00 0.00 0.01 0.01 0.02 0.02 0.03 0.05 0.06 0.07 0.05 0.05 0.05 0.05 0.05 0.08 0.14 0.21 0.23 0.26 0.28 0.30 0.37 0.40 0.30
0.17 0.11 0.07 0.05 0.04 0.03 0.03 0.02 0.02 0.01 0.01 0.01 0.01 0.01 0.02 0.04 0.01 0.00 0.00 0.00 0.01 0.01 0.01 0.02 0.03 0.06 0.05 0.05 0.04 0.07 0.11 0.09 0.10 0.15 0.23 0.28 0.31 0.39 0.40 0.38 0.43 0.44 0.37
0.05 0.03 0.03 0.02 0.02 0.01 0.01 0.01 0.01 0.01 0.02 0.02 0.02 0.02 0.03 0.02 0.01 0.00 0.00 0.00 0.01 0.01 0.02 0.03 0.06 0.07 0.05 0.04 0.06 0.10 0.14 0.14 0.19 0.27 0.28 0.28 0.29 0.33 0.34 0.32 0.34 0.37 0.41
0.02 0.02 0.02 0.01 0.01 0.01 0.01 0.02 0.02 0.03 0.03 0.03 0.03 0.03 0.02 0.02 0.02 0.00 0.00 0.00 0.00 0.02 0.04 0.06 0.08 0.08 0.06 0.09 0.10 0.13 0.15 0.21 0.28 0.31 0.30 0.28 0.26 0.26 0.27 0.26 0.26 0.29 0.34
0.04 0.04 0.03 0.02 0.01 0.01 0.01 0.02 0.03 0.04 0.03 0.03 0.03 0.03 0.03 0.03 0.02 0.00 0.00 0.00 0.01 0.02 0.05 0.08 0.10 0.11 0.13 0.17 0.20 0.21 0.24 0.30 0.31 0.31 0.30 0.29 0.25 0.21 0.19 0.18 0.21 0.26 0.32
0.10 0.07 0.04 0.04 0.03 0.03 0.03 0.03 0.03 0.05 0.03 0.02 0.03 0.03 0.03 0.03 0.02 0.01 0.01 0.01 0.01 0.03 0.04 0.08 0.15 0.21 0.24 0.28 0.30 0.33 0.34 0.32 0.29 0.28 0.27 0.23 0.18 0.14 0.13 0.15 0.20 0.23 0.27
0.12 0.08 0.04 0.03 0.03 0.04 0.05 0.04 0.03 0.03 0.01 0.01 0.02 0.02 0.02 0.02 0.02 0.02 0.01 0.01 0.02 0.02 0.03 0.07 0.14 0.18 0.22 0.24 0.26 0.29 0.31 0.29 0.25 0.23 0.21 0.19 0.15 0.13 0.13 0.14 0.17 0.18 0.21
0.09 0.06 0.03 0.02 0.03 0.03 0.06 0.07 0.03 0.01 0.00 0.00 0.00 0.01 0.01 0.02 0.02 0.02 0.01 0.01 0.03 0.04 0.06 0.11 0.15 0.18 0.23 0.23 0.23 0.26 0.28 0.27 0.24 0.21 0.20 0.18 0.16 0.16 0.18 0.18 0.17 0.18 0.22
0.03 0.02 0.01 0.02 0.02 0.04 0.05 0.09 0.11 0.05 0.01 0.00 0.00 0.01 0.01 0.02 0.02 0.02 0.02 0.03 0.05 0.09 0.12 0.16 0.18 0.21 0.24 0.22 0.22 0.25 0.28 0.27 0.24 0.21 0.19 0.17 0.17 0.16 0.15 0.16 0.16 0.16 0.16
0.01 0.01 0.01 0.02 0.02 0.03 0.03 0.04 0.07 0.09 0.08 0.05 0.03 0.01 0.02 0.03 0.04 0.05 0.06 0.08 0.11 0.14 0.18 0.19 0.19 0.22 0.25 0.25 0.22 0.22 0.22 0.21 0.19 0.19 0.18 0.17 0.15 0.14 0.13 0.12 0.11 0.10 0.11
0.01 0.01 0.01 0.01 0.01 0.02 0.02 0.02 0.02 0.04 0.07 0.08 0.07 0.03 0.04 0.08 0.10 0.11 0.12 0.13 0.16 0.18 0.18 0.19 0.21 0.20 0.21 0.23 0.22 0.20 0.17 0.16 0.14 0.14 0.15 0.15 0.15 0.13 0.10 0.09 0.08 0.07 0.08
0.01 0.01 0.01 0.00 0.00 0.01 0.01 0.00 0.01 0.02 0.04 0.05 0.05 0.03 0.05 0.10 0.13 0.14 0.14 0.14 0.14 0.16 0.17 0.19 0.18 0.17 0.19 0.18 0.15 0.14 0.14 0.13 0.11 0.11 0.11 0.11 0.11 0.10 0.09 0.08 0.06 0.06 0.05
0.00 0.00 0.00 0.00 0.00 0.00 0.00 0.00 0.00 0.01 0.02 0.03 0.03 0.03 0.07 0.10 0.14 0.15 0.15 0.14 0.13 0.15 0.18 0.18 0.16 0.15 0.15 0.14 0.12 0.09 0.08 0.09 0.09 0.11 0.10 0.08 0.07 0.05 0.05 0.03 0.03 0.02 0.02
0.00 0.00 0.00 0.00 0.00 0.00 0.00 0.00 0.00 0.01 0.01 0.02 0.02 0.04 0.08 0.10 0.12 0.16 0.18 0.16 0.14 0.15 0.16 0.16 0.14 0.13 0.11 0.11 0.10 0.08 0.06 0.06 0.07 0.10 0.10 0.07 0.05 0.04 0.02 0.01 0.02 0.02 0.01
0.00 0.00 0.00 0.00 0.00 0.00 0.00 0.00 0.00 0.00 0.01 0.01 0.01 0.03 0.05 0.08 0.13 0.17 0.17 0.14 0.11 0.11 0.12 0.12 0.11 0.09 0.07 0.06 0.05 0.04 0.03 0.03 0.05 0.08 0.09 0.05 0.03 0.03 0.02 0.02 0.02 0.02 0.01
0.00 0.00 0.00 0.00 0.00 0.00 0.00 0.00 0.00 0.00 0.00 0.01 0.01 0.01 0.02 0.05 0.09 0.13 0.15 0.13 0.10 0.09 0.08 0.07 0.07 0.05 0.04 0.03 0.02 0.01 0.01 0.01 0.02 0.03 0.05 0.04 0.03 0.02 0.02 0.02 0.02 0.02 0.02
0.00 0.00 0.00 0.00 0.00 0.00 0.00 0.00 0.00 0.00 0.00 0.00 0.01 0.01 0.01 0.02 0.04 0.06 0.08 0.10 0.10 0.08 0.06 0.04 0.03 0.02 0.01 0.01 0.01 0.00 0.00 0.01 0.00 0.01 0.02 0.02 0.01 0.01 0.01 0.01 0.01 0.02 0.03
0.00 0.00 0.00 0.00 0.00 0.00 0.00 0.00 0.00 0.00 0.00 0.00 0.01 0.01 0.01 0.02 0.02 0.03 0.04 0.06 0.07 0.06 0.06 0.04 0.02 0.01 0.00 0.00 0.00 0.01 0.01 0.01 0.01 0.01 0.01 0.02 0.01 0.01 0.01 0.01 0.01 0.02 0.02

GEFSGL_prec_meanprecacc_048.txt.gz
Total_Precipitation_Accumulation
0.67 0.62 0.53 0.50 0.44 0.40 0.35 0.31 0.25 0.20 0.18 0.16 0.15 0.13 0.10 0.08 0.07 0.06 0.06 0.05 0.05 0.04 0.04 0.04 0.04 0.04 0.05 0.04 0.04 0.04 0.03 0.03 0.04 0.02 0.01 0.01 0.02 0.03 0.03 0.04 0.04 0.06 0.06
0.38 0.35 0.32 0.30 0.29 0.27 0.25 0.23 0.20 0.20 0.19 0.18 0.16 0.14 0.12 0.10 0.09 0.08 0.07 0.07 0.07 0.06 0.06 0.05 0.05 0.05 0.06 0.05 0.05 0.04 0.04 0.05 0.07 0.06 0.03 0.02 0.03 0.04 0.06 0.08 0.06 0.05 0.07
0.23 0.24 0.23 0.24 0.24 0.25 0.26 0.26 0.24 0.23 0.22 0.20 0.19 0.17 0.16 0.14 0.12 0.11 0.09 0.08 0.07 0.05 0.05 0.04 0.03 0.03 0.04 0.04 0.04 0.04 0.04 0.04 0.07 0.09 0.07 0.06 0.05 0.06 0.11 0.11 0.10 0.13 0.10
0.19 0.19 0.19 0.19 0.21 0.22 0.22 0.23 0.23 0.23 0.24 0.25 0.23 0.20 0.17 0.14 0.11 0.08 0.06 0.04 0.03 0.03 0.03 0.02 0.02 0.03 0.04 0.06 0.05 0.06 0.07 0.09 0.11 0.14 0.13 0.10 0.09 0.08 0.14 0.15 0.13 0.13 0.12
0.24 0.25 0.24 0.24 0.24 0.25 0.26 0.27 0.27 0.25 0.22 0.19 0.15 0.12 0.09 0.06 0.04 0.03 0.02 0.01 0.01 0.01 0.01 0.01 0.01 0.03 0.04 0.05 0.06 0.08 0.12 0.15 0.17 0.19 0.16 0.12 0.09 0.12 0.16 0.17 0.16 0.11 0.07
0.36 0.37 0.37 0.37 0.36 0.34 0.30 0.26 0.21 0.17 0.13 0.09 0.06 0.05 0.04 0.02 0.02 0.01 0.01 0.00 0.01 0.01 0.02 0.02 0.02 0.02 0.02 0.02 0.05 0.10 0.16 0.19 0.20 0.21 0.19 0.18 0.15 0.16 0.19 0.19 0.20 0.20 0.15
0.47 0.48 0.47 0.43 0.38 0.30 0.20 0.14 0.10 0.08 0.06 0.05 0.04 0.03 0.03 0.01 0.00 0.00 0.00 0.00 0.01 0.02 0.03 0.03 0.03 0.01 0.03 0.04 0.05 0.07 0.07 0.08 0.14 0.22 0.25 0.23 0.22 0.22 0.27 0.26 0.27 0.29 0.23
0.49 0.47 0.41 0.34 0.26 0.17 0.10 0.07 0.06 0.05 0.04 0.03 0.02 0.02 0.03 0.01 0.00 0.00 0.00 0.00 0.01 0.02 0.03 0.03 0.04 0.04 0.05 0.05 0.04 0.04 0.05 0.07 0.09 0.13 0.21 0.22 0.22 0.23 0.27 0.30 0.31 0.30 0.23
0.41 0.33 0.23 0.16 0.11 0.07 0.05 0.04 0.04 0.03 0.02 0.01 0.01 0.01 0.03 0.04 0.01 0.00 0.00 0.00 0.01 0.02 0.02 0.02 0.03 0.05 0.07 0.07 0.05 0.06 0.08 0.10 0.07 0.08 0.15 0.21 0.24 0.27 0.28 0.30 0.39 0.43 0.33
0.18 0.12 0.08 0.06 0.04 0.04 0.03 0.03 0.02 0.02 0.02 0.01 0.01 0.01 0.03 0.05 0.01 0.00 0.00 0.00 0.01 0.01 0.01 0.02 0.04 0.06 0.05 0.05 0.04 0.09 0.15 0.14 0.14 0.18 0.25 0.30 0.33 0.41 0.41 0.39 0.46 0.47 0.40
0.06 0.04 0.03 0.03 0.02 0.02 0.02 0.02 0.02 0.02 0.03 0.03 0.03 0.03 0.03 0.03 0.01 0.00 0.00 0.00 0.01 0.01 0.03 0.05 0.09 0.07 0.05 0.05 0.06 0.11 0.16 0.15 0.21 0.30 0.33 0.32 0.33 0.37 0.38 0.35 0.37 0.40 0.45
0.02 0.02 0.02 0.01 0.01 0.01 0.02 0.02 0.02 0.03 0.04 0.05 0.04 0.04 0.03 0.03 0.02 0.00 0.00 0.00 0.00 0.02 0.06 0.09 0.11 0.08 0.07 0.09 0.10 0.14 0.16 0.22 0.31 0.36 0.35 0.33 0.30 0.30 0.30 0.28 0.29 0.33 0.39
0.05 0.04 0.03 0.02 0.01 0.01 0.02 0.03 0.04 0.05 0.04 0.04 0.04 0.04 0.04 0.04 0.03 0.00 0.00 0.00 0.01 0.03 0.07 0.09 0.11 0.12 0.14 0.21 0.21 0.21 0.26 0.35 0.37 0.36 0.36 0.34 0.28 0.24 0.21 0.21 0.24 0.30 0.37
0.11 0.08 0.05 0.04 0.04 0.04 0.04 0.04 0.05 0.06 0.04 0.04 0.05 0.05 0.05 0.05 0.03 0.02 0.01 0.02 0.03 0.05 0.07 0.11 0.18 0.24 0.27 0.32 0.35 0.39 0.40 0.37 0.33 0.34 0.34 0.29 0.22 0.18 0.18 0.19 0.23 0.27 0.32
0.13 0.08 0.05 0.04 0.04 0.05 0.06 0.05 0.03 0.04 0.01 0.02 0.03 0.03 0.03 0.04 0.02 0.02 0.01 0.01 0.02 0.04 0.06 0.13 0.21 0.26 0.31 0.32 0.35 0.39 0.41 0.37 0.32 0.30 0.30 0.27 0.22 0.19 0.19 0.18 0.21 0.22 0.26
0.10 0.06 0.03 0.03 0.03 0.04 0.07 0.08 0.03 0.01 0.00 0.00 0.00 0.01 0.02 0.02 0.02 0.02 0.01 0.02 0.04 0.06 0.11 0.18 0.21 0.24 0.29 0.30 0.30 0.33 0.36 0.35 0.30 0.27 0.27 0.26 0.22 0.21 0.23 0.23 0.22 0.23 0.27
0.04 0.02 0.02 0.02 0.03 0.04 0.06 0.10 0.12 0.06 0.01 0.01 0.01 0.01 0.02 0.02 0.02 0.02 0.03 0.05 0.08 0.14 0.19 0.23 0.24 0.27 0.31 0.28 0.27 0.32 0.36 0.34 0.29 0.26 0.25 0.23 0.21 0.19 0.20 0.21 0.21 0.20 0.20
0.02 0.01 0.01 0.02 0.02 0.03 0.04 0.05 0.08 0.11 0.10 0.07 0.03 0.02 0.02 0.03 0.04 0.05 0.08 0.12 0.17 0.20 0.24 0.24 0.24 0.27 0.30 0.29 0.26 0.26 0.27 0.25 0.23 0.22 0.22 0.19 0.18 0.18 0.18 0.18 0.16 0.14 0.15
0.01 0.02 0.01 0.01 0.01 0.02 0.02 0.02 0.02 0.04 0.08 0.10 0.09 0.05 0.05 0.08 0.10 0.12 0.16 0.18 0.21 0.21 0.21 0.22 0.23 0.23 0.24 0.27 0.25 0.22 0.20 0.18 0.16 0.15 0.16 0.17 0.17 0.15 0.14 0.13 0.12 0.09 0.11
0.01 0.01 0.01 0.00 0.00 0.01 0.01 0.01 0.01 0.02 0.05 0.07 0.06 0.04 0.06 0.11 0.16 0.17 0.16 0.16 0.16 0.18 0.19 0.21 0.20 0.18 0.20 0.19 0.16 0.15 0.15 0.14 0.12 0.11 0.11 0.11 0.11 0.12 0.11 0.10 0.09 0.08 0.07
0.00 0.00 0.00 0.00 0.00 0.00 0.00 0.00 0.01 0.01 0.02 0.03 0.03 0.04 0.08 0.12 0.17 0.18 0.17 0.15 0.14 0.16 0.19 0.19 0.17 0.16 0.15 0.14 0.12 0.09 0.09 0.09 0.09 0.11 0.10 0.08 0.07 0.07 0.05 0.04 0.03 0.03 0.03
0.00 0.00 0.00 0.00 0.00 0.00 0.00 0.00 0.00 0.01 0.02 0.02 0.03 0.05 0.09 0.12 0.15 0.19 0.20 0.17 0.15 0.15 0.17 0.16 0.14 0.13 0.11 0.11 0.10 0.08 0.06 0.06 0.07 0.10 0.10 0.07 0.05 0.04 0.02 0.02 0.02 0.02 0.02
0.00 0.00 0.00 0.00 0.00 0.00 0.00 0.00 0.00 0.01 0.01 0.01 0.02 0.04 0.06 0.10 0.15 0.18 0.18 0.15 0.11 0.11 0.12 0.12 0.11 0.09 0.07 0.06 0.05 0.04 0.03 0.03 0.05 0.08 0.09 0.05 0.03 0.03 0.02 0.02 0.02 0.02 0.01
0.00 0.00 0.00 0.00 0.00 0.00 0.00 0.00 0.00 0.00 0.00 0.01 0.01 0.02 0.03 0.06 0.10 0.13 0.15 0.13 0.10 0.09 0.08 0.07 0.07 0.05 0.04 0.03 0.02 0.01 0.01 0.01 0.02 0.03 0.05 0.04 0.03 0.02 0.02 0.02 0.02 0.02 0.02
0.00 0.00 0.00 0.00 0.00 0.00 0.00 0.00 0.00 0.00 0.00 0.01 0.01 0.02 0.02 0.02 0.04 0.06 0.08 0.10 0.10 0.08 0.06 0.04 0.03 0.02 0.01 0.01 0.01 0.00 0.00 0.01 0.00 0.01 0.02 0.02 0.01 0.01 0.01 0.01 0.01 0.02 0.03
0.00 0.00 0.00 0.00 0.00 0.00 0.00 0.00 0.00 0.00 0.00 0.01 0.01 0.02 0.02 0.02 0.02 0.03 0.04 0.06 0.07 0.06 0.06 0.04 0.02 0.01 0.00 0.00 0.00 0.01 0.01 0.01 0.01 0.01 0.01 0.02 0.01 0.01 0.01 0.01 0.01 0.02 0.02

GEFSGL_prec_meanprecacc_054.txt.gz
Total_Precipitation_Accumulation
0.73 0.68 0.60 0.56 0.51 0.46 0.43 0.39 0.33 0.28 0.25 0.24 0.22 0.20 0.18 0.15 0.14 0.13 0.13 0.12 0.12 0.12 0.12 0.12 0.12 0.11 0.10 0.09 0.09 0.08 0.07 0.07 0.08 0.04 0.02 0.02 0.02 0.03 0.03 0.04 0.04 0.06 0.06
0.41 0.38 0.35 0.33 0.33 0.32 0.31 0.30 0.28 0.27 0.26 0.24 0.22 0.21 0.20 0.19 0.18 0.18 0.17 0.17 0.16 0.16 0.15 0.14 0.13 0.11 0.12 0.10 0.09 0.08 0.08 0.09 0.09 0.08 0.05 0.03 0.04 0.05 0.07 0.09 0.06 0.05 0.07
0.25 0.26 0.26 0.27 0.28 0.29 0.31 0.32 0.31 0.29 0.28 0.27 0.25 0.25 0.24 0.23 0.22 0.21 0.19 0.17 0.15 0.13 0.12 0.11 0.09 0.08 0.08 0.08 0.08 0.07 0.06 0.06 0.08 0.11 0.08 0.06 0.05 0.07 0.11 0.12 0.11 0.15 0.10
0.20 0.21 0.21 0.22 0.24 0.26 0.26 0.27 0.27 0.28 0.29 0.31 0.30 0.28 0.25 0.22 0.18 0.15 0.12 0.10 0.08 0.07 0.06 0.05 0.04 0.05 0.07 0.08 0.07 0.07 0.08 0.10 0.11 0.15 0.14 0.11 0.09 0.09 0.17 0.18 0.15 0.15 0.14
0.25 0.26 0.26 0.26 0.26 0.27 0.29 0.30 0.30 0.29 0.26 0.23 0.20 0.16 0.12 0.09 0.07 0.05 0.03 0.02 0.02 0.02 0.02 0.02 0.02 0.03 0.05 0.06 0.06 0.08 0.13 0.16 0.18 0.20 0.17 0.13 0.11 0.16 0.20 0.21 0.18 0.13 0.09
0.37 0.39 0.39 0.38 0.38 0.36 0.33 0.29 0.25 0.21 0.16 0.12 0.09 0.06 0.05 0.03 0.02 0.01 0.01 0.01 0.01 0.02 0.02 0.02 0.02 0.02 0.02 0.02 0.05 0.10 0.16 0.19 0.20 0.21 0.20 0.20 0.18 0.22 0.25 0.23 0.23 0.22 0.17
0.49 0.49 0.48 0.45 0.39 0.31 0.22 0.16 0.13 0.10 0.08 0.06 0.04 0.03 0.03 0.01 0.00 0.00 0.00 0.00 0.02 0.03 0.04 0.04 0.03 0.02 0.03 0.05 0.06 0.07 0.08 0.09 0.15 0.22 0.26 0.26 0.27 0.29 0.32 0.29 0.30 0.31 0.25
0.51 0.48 0.43 0.35 0.27 0.18 0.12 0.09 0.08 0.07 0.06 0.04 0.03 0.03 0.04 0.02 0.00 0.00 0.00 0.00 0.02 0.03 0.04 0.04 0.05 0.05 0.06 0.06 0.04 0.05 0.08 0.13 0.13 0.15 0.23 0.25 0.25 0.26 0.29 0.31 0.32 0.32 0.27
0.42 0.34 0.24 0.17 0.12 0.08 0.07 0.06 0.06 0.05 0.04 0.03 0.03 0.04 0.06 0.05 0.01 0.00 0.00 0.01 0.02 0.03 0.03 0.03 0.04 0.06 0.07 0.07 0.05 0.08 0.13 0.18 0.11 0.09 0.15 0.22 0.24 0.27 0.28 0.31 0.40 0.47 0.38
0.19 0.13 0.09 0.07 0.05 0.04 0.04 0.05 0.04 0.04 0.04 0.03 0.03 0.04 0.07 0.08 0.02 0.00 0.00 0.00 0.02 0.02 0.05 0.07 0.06 0.06 0.05 0.05 0.04 0.11 0.19 0.21 0.19 0.23 0.30 0.35 0.37 0.44 0.42 0.40 0.48 0.52 0.47
0.06 0.05 0.04 0.03 0.02 0.02 0.03 0.03 0.03 0.04 0.05 0.06 0.06 0.07 0.08 0.04 0.01 0.00 0.00 0.00 0.01 0.02 0.08 0.15 0.16 0.08 0.05 0.05 0.06 0.11 0.18 0.16 0.22 0.35 0.42 0.43 0.43 0.47 0.46 0.41 0.45 0.49 0.54
0.03 0.03 0.03 0.02 0.01 0.01 0.03 0.04 0.04 0.06 0.08 0.09 0.09 0.09 0.09 0.06 0.03 0.01 0.00 0.00 0.00 0.03 0.13 0.17 0.17 0.09 0.07 0.09 0.11 0.14 0.16 0.22 0.34 0.45 0.46 0.44 0.41 0.40 0.39 0.36 0.39 0.45 0.52
0.05 0.05 0.03 0.03 0.02 0.02 0.03 0.05 0.06 0.08 0.07 0.06 0.07 0.08 0.08 0.09 0.06 0.00 0.00 0.00 0.01 0.04 0.11 0.10 0.11 0.12 0.15 0.25 0.23 0.21 0.26 0.38 0.46 0.48 0.48 0.45 0.37 0.31 0.27 0.27 0.32 0.42 0.50
0.12 0.08 0.05 0.05 0.05 0.05 0.06 0.05 0.06 0.08 0.06 0.06 0.07 0.08 0.08 0.09 0.05 0.02 0.02 0.03 0.04 0.07 0.09 0.13 0.21 0.27 0.30 0.37 0.41 0.45 0.47 0.46 0.41 0.45 0.44 0.38 0.28 0.24 0.24 0.26 0.31 0.36 0.43
0.14 0.09 0.05 0.04 0.05 0.07 0.09 0.06 0.04 0.05 0.01 0.02 0.04 0.04 0.05 0.05 0.03 0.02 0.01 0.01 0.03 0.04 0.06 0.17 0.32 0.38 0.43 0.47 0.49 0.53 0.55 0.50 0.43 0.42 0.41 0.37 0.30 0.27 0.25 0.24 0.28 0.30 0.36
0.11 0.07 0.04 0.03 0.05 0.06 0.09 0.10 0.04 0.01 0.00 0.00 0.00 0.01 0.02 0.02 0.02 0.02 0.01 0.02 0.04 0.06 0.12 0.25 0.33 0.36 0.40 0.41 0.41 0.44 0.49 0.48 0.41 0.37 0.37 0.34 0.29 0.27 0.28 0.28 0.28 0.31 0.36
0.06 0.03 0.02 0.02 0.03 0.06 0.08 0.14 0.16 0.07 0.01 0.01 0.01 0.01 0.02 0.02 0.02 0.02 0.03 0.05 0.08 0.14 0.23 0.31 0.33 0.36 0.39 0.36 0.36 0.41 0.44 0.41 0.34 0.31 0.30 0.28 0.25 0.24 0.25 0.26 0.26 0.26 0.27
0.02 0.01 0.01 0.02 0.03 0.04 0.05 0.06 0.10 0.14 0.14 0.09 0.04 0.02 0.02 0.03 0.04 0.05 0.08 0.13 0.21 0.25 0.30 0.31 0.31 0.34 0.37 0.37 0.33 0.32 0.32 0.27 0.24 0.24 0.24 0.22 0.20 0.21 0.22 0.23 0.20 0.17 0.20
0.01 0.02 0.01 0.01 0.01 0.02 0.03 0.03 0.03 0.06 0.11 0.14 0.11 0.06 0.05 0.09 0.11 0.13 0.16 0.20 0.25 0.26 0.25 0.26 0.28 0.28 0.29 0.32 0.28 0.24 0.21 0.18 0.16 0.16 0.17 0.17 0.18 0.17 0.17 0.16 0.13 0.09 0.13
0.01 0.01 0.01 0.00 0.00 0.01 0.01 0.01 0.01 0.03 0.06 0.09 0.08 0.06 0.07 0.14 0.21 0.22 0.20 0.20 0.20 0.20 0.22 0.24 0.22 0.19 0.21 0.21 0.17 0.16 0.16 0.14 0.12 0.11 0.12 0.11 0.12 0.13 0.12 0.10 0.09 0.09 0.09
0.00 0.00 0.00 0.00 0.00 0.00 0.00 0.00 0.01 0.01 0.03 0.04 0.04 0.04 0.08 0.15 0.23 0.23 0.22 0.18 0.16 0.17 0.20 0.20 0.18 0.16 0.15 0.14 0.12 0.10 0.09 0.09 0.09 0.11 0.10 0.08 0.07 0.07 0.06 0.04 0.04 0.04 0.04
0.00 0.00 0.00 0.00 0.00 0.00 0.00 0.00 0.01 0.01 0.02 0.03 0.04 0.05 0.09 0.15 0.21 0.24 0.24 0.20 0.15 0.15 0.17 0.16 0.14 0.13 0.11 0.11 0.10 0.08 0.06 0.06 0.07 0.11 0.10 0.07 0.05 0.04 0.02 0.02 0.02 0.02 0.02
0.00 0.00 0.00 0.00 0.00 0.00 0.00 0.00 0.00 0.01 0.01 0.02 0.03 0.05 0.08 0.15 0.20 0.22 0.21 0.16 0.12 0.11 0.12 0.12 0.11 0.09 0.07 0.06 0.05 0.04 0.03 0.03 0.05 0.08 0.09 0.05 0.03 0.03 0.02 0.02 0.02 0.02 0.01
0.00 0.00 0.00 0.00 0.00 0.00 0.00 0.00 0.00 0.00 0.01 0.01 0.03 0.04 0.05 0.10 0.14 0.16 0.16 0.14 0.10 0.09 0.08 0.07 0.07 0.05 0.04 0.03 0.02 0.01 0.01 0.01 0.02 0.03 0.05 0.04 0.03 0.02 0.02 0.02 0.02 0.02 0.02
0.00 0.00 0.00 0.00 0.00 0.00 0.00 0.00 0.00 0.00 0.01 0.01 0.02 0.03 0.03 0.04 0.05 0.07 0.09 0.10 0.10 0.08 0.06 0.04 0.03 0.02 0.01 0.01 0.01 0.00 0.00 0.01 0.00 0.01 0.02 0.02 0.01 0.01 0.01 0.01 0.01 0.02 0.03
0.00 0.00 0.00 0.00 0.00 0.00 0.00 0.00 0.01 0.01 0.01 0.01 0.02 0.03 0.02 0.02 0.02 0.03 0.04 0.06 0.07 0.06 0.06 0.04 0.02 0.01 0.00 0.00 0.00 0.01 0.01 0.01 0.01 0.01 0.01 0.02 0.01 0.01 0.01 0.01 0.01 0.02 0.02